This is the latest recevied weather packets stored in our database for station/object VE3MNX. If no packets are shown the sender has not sent any weather packets the latest 10 day(s).
| Time | Temp. | Humidity | Pressure | Rain* | Wind** | Luminosity | Snow |
|---|---|---|---|---|---|---|---|
| 1778064798 | 7.22° C | 94% | 1007.5 hPa | 0 mm | - | - | - |
| 1778063898 | 7.78° C | 93% | 1007.1 hPa | 0 mm | - | - | - |
| 1778062998 | 7.78° C | 93% | 1006.8 hPa | 0 mm | - | - | - |
| 1778062098 | 7.78° C | 91% | 1006.8 hPa | 0 mm | - | - | - |
| 1778061197 | 7.22° C | 91% | 1007.1 hPa | 0 mm | - | - | - |
| 1778060297 | 7.22° C | 91% | 1007.1 hPa | 0 mm | - | - | - |
| 1778059401 | 7.22° C | 93% | 1007 hPa | 0 mm | - | - | - |
| 1778058497 | 7.22° C | 90% | 1007.1 hPa | 0 mm | - | - | - |
| 1778057599 | 7.22° C | 90% | 1007.5 hPa | 0 mm | - | - | - |
| 1778056697 | 7.22° C | 90% | 1006.8 hPa | 0 mm | - | - | - |
| 1778055799 | 7.22° C | 89% | 1006.8 hPa | 0 mm | - | - | - |
| 1778054900 | 7.22° C | 89% | 1006.8 hPa | 0.25 mm | - | - | - |
| 1778053997 | 7.22° C | 91% | 1006.8 hPa | 0.25 mm | - | - | - |
| 1778053097 | 7.22° C | 92% | 1006.8 hPa | 0.25 mm | - | - | - |
| 1778052199 | 7.22° C | 92% | 1007.1 hPa | 0.25 mm | - | - | - |
| 1778051298 | 7.22° C | 93% | 1007.5 hPa | 0 mm | - | - | - |
| 1778050397 | 7.22° C | 93% | 1007.5 hPa | 0 mm | - | - | - |
| 1778049497 | 7.22° C | 94% | 1007.1 hPa | 0 mm | - | - | - |
| 1778048599 | 7.22° C | 94% | 1007.1 hPa | 0.25 mm | - | - | - |
| 1778047697 | 7.22° C | 94% | 1007.1 hPa | 0.25 mm | - | - | - |
| 1778046800 | 7.78° C | 94% | 1007.5 hPa | 0.25 mm | - | - | - |
| 1778045899 | 7.78° C | 96% | 1007.5 hPa | 0.51 mm | - | - | - |
| 1778044998 | 7.78° C | 98% | 1007.5 hPa | 0.25 mm | - | - | - |
| 1778044097 | 8.33° C | 98% | 1007.5 hPa | 0.51 mm | - | - | - |
| 1778043198 | 8.33° C | 99% | 1007.7 hPa | 0 mm | - | - | - |
* Rain latest hour (hover to see other rain measurements)
** Current wind speed in m/s (hover to see current wind gust speed)